Back to catalog

STARLINK-33929

AliveCommunicationsVLEO
NORAD 64188·PAYLOAD·🇺🇸 United States

Launched May 28, 2025 from Cape Canaveral Space Force Station

Loading…

Next Passes (next 24 hours)

TLE

FreshSource: CelesTrak SupGP

Epoch: Sep 14, 2026, 14:31 UTC

1 64188C 25113U   26257.60534722  .00033507  00000+0  99037-3 0  2575
2 64188  53.1574 293.2554 0001161  76.9189 306.2423 15.34360925    12

Track STARLINK-33929 in real time with AllMySat

Download on the App Store